Home > Time Zones > World Clock > Weather > China > Sian > Past weeks

Flag for China Weather past 2 weeks in Sian, Shaanxi, China

Now
91 °F

Passing clouds.


Feels Like: 99 °F
Forecast: 79 / 102 °F
Wind: 3 mph from Northeast

Location: Xian/Xianyang

Current Time: Jul 30, 2015 at 10:27:04 AM

Latest Report: Jul 30, 2015 at 10:00 AM


Visibility: N/A

Pressure: 29.65 "Hg

Humidity: 52%

Dew point: 72 °F

Location of SianLocation

Historic Weather in Sian — Graph

°F

Sian temperature yesterday

Maximum temperature yesterday: 100 °F (at 3:00 PM)
Minimum temperature yesterday: 73 °F (at 5:00 AM)
Average temperature yesterday: 87 °F

Past Weeks' High & Low Weather Summary

 TemperatureHumidityPressure
High100 °F (Jul 29, 3:00 PM)94% (Jul 16, 1:00 AM)29.83 "Hg (Jul 16, 1:00 AM)
Low63 °F (Jul 25, 5:00 AM)24% (Jul 24, 7:00 PM)29.53 "Hg (Jul 28, 6:00 PM)
Average80 °F64%29.68 "Hg
* Reported Jul 15 9:00 AM — Jul 30 9:00 AM, Sian, Weather by CustomWeather, © 2015

Note: Actual official high and low records may vary slightly from our data, if they occured in-between our weather recording intervals... More about our weather records

Advertising

Sian weather history for previous 24 hours

 ConditionsComfort  
Time TempWeatherWind HumidityBarometerVisibility
9:00 AM
Thu, Jul 30
88 °FPassing clouds.3 mph59%29.65 "HgN/A
8:00 AM82 °FPassing clouds.3 mph70%29.65 "HgN/A
7:00 AM79 °FClear.3 mph79%29.62 "Hg5 mi
6:00 AM75 °FClear.6 mph83%29.62 "Hg5 mi
5:00 AM77 °FClear.No wind83%29.59 "Hg10 mi
4:00 AM77 °FClear.1 mph79%29.59 "Hg10 mi
3:00 AM77 °FClear.1 mph83%29.59 "Hg10 mi
2:00 AM79 °FClear.No wind79%29.59 "Hg10 mi
1:00 AM81 °FClear.1 mph70%29.62 "Hg10 mi
12:00 AM81 °FClear.3 mph70%29.62 "Hg10 mi
11:00 PM
Wed, Jul 29
82 °FClear.1 mph66%29.59 "Hg10 mi
10:00 PM86 °FClear.3 mph59%29.59 "Hg10 mi
9:00 PM86 °FClear.No wind66%29.56 "Hg10 mi
8:00 PM88 °FSunny.1 mph59%29.53 "Hg10 mi
7:00 PM95 °FSunny.No wind47%29.53 "Hg10 mi
6:00 PM99 °FSunny.1 mph37%29.53 "Hg10 mi
5:00 PM99 °FPassing clouds.3 mph37%29.53 "HgN/A
4:00 PM100 °FSunny.1 mph33%29.56 "Hg10 mi
3:00 PM100 °FSunny.1 mph33%29.59 "Hg10 mi
2:00 PM97 °FSunny.3 mph37%29.59 "Hg10 mi
1:00 PM97 °FSunny.1 mph42%29.62 "Hg10 mi
12:00 PM95 °FSunny.1 mph39%29.62 "Hg10 mi
11:00 AM95 °FPassing clouds.3 mph41%29.65 "HgN/A
10:00 AM91 °FPassing clouds.3 mph49%29.62 "HgN/A
Weather by CustomWeather, © 2015

See weather overviewHow to use our weather pages